| time (UTC) | temp C | wind direction | speed KPH | gust KPH | rain 1hr cm | rain 24hr cm | rain mn cm | humidity % | barometer mb |
| 20260503210307 | 25 | 225 | 9.7 | 20.9 | 0.00 | 0.00 | 0.00 | 34 | 1015.5 |
| 20260503210008 | 25 | 221 | 11.3 | 17.7 | 0.00 | 0.00 | 0.00 | 34 | 1011.7 |
| 20260503204834 | 25 | 257 | 6.4 | 14.5 | 0.00 | 0.00 | 0.00 | 33 | 1015.6 |
| 20260503204511 | 25 | 187 | 8.0 | 16.1 | 0.00 | 0.00 | 0.00 | 32 | 1011.8 |
| 20260503203349 | 25 | 231 | 12.9 | 19.3 | 0.00 | 0.00 | 0.00 | 31 | 1015.9 |
| 20260503203014 | 25 | 230 | 3.2 | 12.9 | 0.00 | 0.00 | 0.00 | 34 | 1011.9 |
| 20260503201827 | 25 | 114 | 4.8 | 9.7 | 0.00 | 0.00 | 0.00 | 31 | 1015.9 |
| 20260503201515 | 25 | 127 | 4.8 | 12.9 | 0.00 | 0.00 | 0.00 | 32 | 1012.0 |
| 20260503200334 | 24 | 107 | 4.8 | 11.3 | 0.00 | 0.00 | 0.00 | 32 | 1016.0 |
| 20260503200013 | 23 | 143 | 3.2 | 11.3 | 0.00 | 0.00 | 0.00 | 29 | 1012.3 |
| 20260503194819 | 24 | 181 | 4.8 | 12.9 | 0.00 | 0.00 | 0.00 | 33 | 1016.1 |
| 20260503194540 | 23 | 137 | 4.8 | 12.9 | 0.00 | 0.00 | 0.00 | 34 | 1012.4 |
| 20260503193327 | 25 | 169 | 4.8 | 9.7 | 0.00 | 0.00 | 0.00 | 34 | 1016.3 |
| 20260503193057 | 24 | 130 | 3.2 | 11.3 | 0.00 | 0.00 | 0.00 | 33 | 1012.7 |
| 20260503191853 | 25 | 284 | 6.4 | 9.7 | 0.00 | 0.00 | 0.00 | 27 | 1016.5 |
| 20260503191537 | 24 | 11 | 0.0 | 11.3 | 0.00 | 0.00 | 0.00 | 26 | 1012.9 |
| 20260503190340 | 24 | 87 | 3.2 | 9.7 | 0.00 | 0.00 | 0.00 | 28 | 1016.6 |
| 20260503190038 | 23 | 103 | 4.8 | 9.7 | 0.00 | 0.00 | 0.00 | 28 | 1013.1 |
| 20260503184845 | 23 | 25 | 3.2 | 9.7 | 0.00 | 0.00 | 0.00 | 28 | 1016.7 |
| 20260503184540 | 23 | 356 | 3.2 | 9.7 | 0.00 | 0.00 | 0.00 | 28 | 1013.3 |
| 20260503183332 | 24 | 15 | 4.8 | 9.7 | 0.00 | 0.00 | 0.00 | 28 | 1016.8 |
| 20260503183102 | 23 | 353 | 3.2 | 8.0 | 0.00 | 0.00 | 0.00 | 31 | 1013.3 |
| 20260503181839 | 24 | 10 | 3.2 | 9.7 | 0.00 | 0.00 | 0.00 | 31 | 1016.7 |
| 20260503181503 | 23 | 360 | 3.2 | 9.7 | 0.00 | 0.00 | 0.00 | 32 | 1013.3 |
| 20260503180346 | 23 | 33 | 4.8 | 9.7 | 0.00 | 0.00 | 0.00 | 31 | 1016.8 |
| 20260503180003 | 23 | 88 | 6.4 | 9.7 | 0.00 | 0.00 | 0.00 | 31 | 1013.3 |
| 20260503174824 | 23 | 54 | 3.2 | 11.3 | 0.00 | 0.00 | 0.00 | 31 | 1016.8 |
| 20260503174526 | 23 | 13 | 1.6 | 12.9 | 0.00 | 0.00 | 0.00 | 32 | 1013.4 |
| 20260503173312 | 23 | 356 | 4.8 | 12.9 | 0.00 | 0.00 | 0.00 | 31 | 1016.8 |
| 20260503173047 | 23 | 26 | 3.2 | 12.9 | 0.00 | 0.00 | 0.00 | 30 | 1013.5 |
| 20260503171926 | 23 | 12 | 3.2 | 9.7 | 0.00 | 0.00 | 0.00 | 31 | 1016.9 |
| 20260503171506 | 23 | 356 | 3.2 | 12.9 | 0.00 | 0.00 | 0.00 | 33 | 1013.6 |
| 20260503170324 | 23 | 51 | 3.2 | 8.0 | 0.00 | 0.00 | 0.00 | 32 | 1016.9 |
| 20260503150314 | 18 | 332 | 1.6 | 4.8 | 0.00 | 0.00 | 0.00 | 53 | 1017.3 |
| 20260503130336 | 13 | 307 | 6.4 | 8.0 | 0.00 | 0.00 | 0.00 | 56 | 1016.9 |
| 20260503110313 | 13 | 314 | 6.4 | 8.0 | 0.00 | 0.00 | 0.00 | 60 | 1017.3 |
| 20260503090315 | 13 | 305 | 6.4 | 8.0 | 0.00 | 0.00 | 0.00 | 63 | 1017.6 |
| 20260503081558 | 12 | 309 | 4.8 | 8.0 | 0.00 | 0.00 | 0.00 | 70 | 1015.5 |
| 20260503080309 | 13 | 311 | 3.2 | 4.8 | 0.00 | 0.00 | 0.00 | 68 | 1017.8 |
| 20260503071847 | 13 | 309 | 4.8 | 6.4 | 0.00 | 0.00 | 0.00 | 70 | 1017.6 |
| 20260503071522 | 13 | 304 | 4.8 | 6.4 | 0.00 | 0.00 | 0.00 | 70 | 1015.4 |
| 20260503070335 | 12 | 303 | 3.2 | 6.4 | 0.00 | 0.00 | 0.00 | 74 | 1017.7 |
| 20260503060315 | 15 | 317 | 4.8 | 6.4 | 0.00 | 0.00 | 0.00 | 72 | 1018.0 |
| 20260503054821 | 12 | 322 | 4.8 | 6.4 | 0.00 | 0.00 | 0.00 | 80 | 1017.9 |
| 20260503054556 | 12 | 313 | 4.8 | 6.4 | 0.00 | 0.00 | 0.00 | 79 | 1015.7 |
| 20260503053329 | 13 | 307 | 4.8 | 6.4 | 0.00 | 0.00 | 0.00 | 77 | 1018.1 |
| 20260503053005 | 13 | 308 | 4.8 | 6.4 | 0.00 | 0.00 | 0.00 | 77 | 1015.7 |
| 20260503051807 | 13 | 304 | 4.8 | 4.8 | 0.00 | 0.00 | 0.00 | 78 | 1018.0 |
| 20260503051528 | 13 | 304 | 3.2 | 4.8 | 0.00 | 0.00 | 0.00 | 78 | 1015.7 |
| 20260503050315 | 13 | 306 | 4.8 | 6.4 | 0.00 | 0.00 | 0.00 | 77 | 1017.8 |
| 20260503050050 | 13 | 314 | 3.2 | 6.4 | 0.00 | 0.00 | 0.00 | 77 | 1015.5 |
| 20260503044815 | 13 | 302 | 4.8 | 4.8 | 0.00 | 0.00 | 0.00 | 78 | 1017.5 |
| 20260503044510 | 13 | 302 | 3.2 | 4.8 | 0.00 | 0.00 | 0.00 | 78 | 1015.2 |
| 20260503043321 | 13 | 302 | 3.2 | 6.4 | 0.00 | 0.00 | 0.00 | 78 | 1017.4 |
| 20260503043031 | 13 | 302 | 3.2 | 8.0 | 0.00 | 0.00 | 0.00 | 78 | 1015.2 |
| 20260503041845 | 14 | 306 | 6.4 | 8.0 | 0.00 | 0.00 | 0.00 | 77 | 1017.4 |
| 20260503041537 | 13 | 314 | 4.8 | 6.4 | 0.00 | 0.00 | 0.00 | 77 | 1015.1 |
| 20260503040313 | 15 | 308 | 3.2 | 4.8 | 0.00 | 0.00 | 0.00 | 75 | 1017.4 |
| 20260503034816 | 15 | 312 | 3.2 | 4.8 | 0.00 | 0.00 | 0.00 | 73 | 1017.1 |
| 20260503034513 | 15 | 312 | 3.2 | 4.8 | 0.00 | 0.00 | 0.00 | 72 | 1014.7 |
| 20260503033325 | 16 | 312 | 0.0 | 4.8 | 0.00 | 0.00 | 0.00 | 70 | 1016.9 |
| 20260503033038 | 16 | 312 | 0.0 | 4.8 | 0.00 | 0.00 | 0.00 | 70 | 1014.5 |
| 20260503031830 | 17 | 318 | 1.6 | 4.8 | 0.00 | 0.00 | 0.00 | 66 | 1016.7 |
| 20260503031536 | 17 | 329 | 0.0 | 4.8 | 0.00 | 0.00 | 0.00 | 65 | 1014.4 |
| 20260503030338 | 17 | 265 | 1.6 | 3.2 | 0.00 | 0.00 | 0.00 | 67 | 1016.5 |
| 20260503030045 | 17 | 265 | 0.0 | 3.2 | 0.00 | 0.00 | 0.00 | 67 | 1014.2 |
| 20260503024822 | 18 | 198 | 3.2 | 4.8 | 0.00 | 0.00 | 0.00 | 66 | 1016.4 |
| 20260503024558 | 17 | 240 | 1.6 | 9.7 | 0.00 | 0.00 | 0.00 | 66 | 1014.1 |
| 20260503023322 | 18 | 188 | 4.8 | 9.7 | 0.00 | 0.00 | 0.00 | 66 | 1016.4 |
| 20260503023018 | 18 | 180 | 4.8 | 9.7 | 0.00 | 0.00 | 0.00 | 65 | 1013.9 |
| 20260503021807 | 19 | 221 | 4.8 | 8.0 | 0.00 | 0.00 | 0.00 | 61 | 1016.2 |
| 20260503021539 | 19 | 183 | 3.2 | 8.0 | 0.00 | 0.00 | 0.00 | 62 | 1013.8 |
| 20260503020316 | 19 | 210 | 8.0 | 12.9 | 0.00 | 0.00 | 0.00 | 59 | 1016.1 |
| 20260503020100 | 19 | 221 | 6.4 | 12.9 | 0.00 | 0.00 | 0.00 | 62 | 1013.9 |
| 20260503014814 | 20 | 217 | 6.4 | 16.1 | 0.00 | 0.00 | 0.00 | 62 | 1016.3 |
| 20260503014521 | 19 | 219 | 4.8 | 16.1 | 0.00 | 0.00 | 0.00 | 62 | 1014.0 |
| 20260503013345 | 20 | 190 | 8.0 | 17.7 | 0.00 | 0.00 | 0.00 | 59 | 1016.2 |
| 20260503013024 | 20 | 228 | 3.2 | 14.5 | 0.00 | 0.00 | 0.00 | 60 | 1013.9 |
| 20260503011831 | 21 | 250 | 9.7 | 16.1 | 0.00 | 0.00 | 0.00 | 58 | 1016.2 |
| 20260503011524 | 21 | 155 | 4.8 | 16.1 | 0.00 | 0.00 | 0.00 | 52 | 1013.9 |
| 20260503010318 | 21 | 269 | 9.7 | 17.7 | 0.00 | 0.00 | 0.00 | 53 | 1016.0 |
| 20260503010045 | 21 | 258 | 3.2 | 17.7 | 0.00 | 0.00 | 0.00 | 53 | 1013.8 |
| 20260503004904 | 21 | 235 | 16.1 | 19.3 | 0.00 | 0.00 | 0.00 | 52 | 1016.0 |
| 20260503004527 | 21 | 216 | 3.2 | 25.7 | 0.00 | 0.00 | 0.00 | 54 | 1013.8 |
| 20260503003331 | 21 | 226 | 11.3 | 22.5 | 0.00 | 0.00 | 0.00 | 53 | 1016.0 |
| 20260503003027 | 21 | 198 | 8.0 | 25.7 | 0.00 | 0.00 | 0.00 | 52 | 1013.8 |
| 20260503001836 | 21 | 240 | 12.9 | 20.9 | 0.00 | 0.00 | 0.00 | 54 | 1016.0 |
| 20260503001529 | 21 | 301 | 8.0 | 19.3 | 0.00 | 0.00 | 0.00 | 53 | 1013.8 |
| 20260503000322 | 21 | 213 | 11.3 | 22.5 | 0.00 | 0.00 | 0.00 | 52 | 1016.1 |
| 20260503000049 | 21 | 223 | 9.7 | 22.5 | 0.00 | 0.00 | 0.00 | 50 | 1013.9 |
| 20260502234828 | 21 | 329 | 3.2 | 16.1 | 0.00 | 0.00 | 0.00 | 51 | 1016.1 |
| 20260502234509 | 21 | 318 | 9.7 | 22.5 | 0.00 | 0.00 | 0.00 | 50 | 1014.0 |
| 20260502233313 | 21 | 210 | 9.7 | 19.3 | 0.00 | 0.00 | 0.00 | 51 | 1016.2 |
| 20260502233031 | 20 | 222 | 8.0 | 20.9 | 0.00 | 0.00 | 0.00 | 58 | 1014.1 |
| 20260502231819 | 21 | 225 | 11.3 | 20.9 | 0.00 | 0.00 | 0.00 | 54 | 1016.2 |
| 20260502231554 | 21 | 198 | 9.7 | 20.9 | 0.00 | 0.00 | 0.00 | 51 | 1014.1 |
| 20260502230347 | 21 | 210 | 12.9 | 24.1 | 0.00 | 0.00 | 0.00 | 51 | 1016.2 |
| 20260502230054 | 21 | 217 | 9.7 | 24.1 | 0.00 | 0.00 | 0.00 | 50 | 1014.1 |
| 20260502224832 | 20 | 199 | 9.7 | 17.7 | 0.00 | 0.00 | 0.00 | 61 | 1016.2 |
| 20260502224514 | 20 | 207 | 9.7 | 19.3 | 0.00 | 0.00 | 0.00 | 63 | 1014.2 |
| 20260502223311 | 20 | 197 | 11.3 | 16.1 | 0.00 | 0.00 | 0.00 | 62 | 1016.4 |
| 20260502223033 | 19 | 218 | 9.7 | 19.3 | 0.00 | 0.00 | 0.00 | 63 | 1014.4 |
| 20260502221817 | 20 | 198 | 12.9 | 17.7 | 0.00 | 0.00 | 0.00 | 63 | 1016.6 |
| 20260502221555 | 19 | 216 | 11.3 | 22.5 | 0.00 | 0.00 | 0.00 | 65 | 1014.4 |
| 20260502220318 | 19 | 181 | 14.5 | 20.9 | 0.00 | 0.00 | 0.00 | 66 | 1016.6 |
| 20260502220014 | 18 | 183 | 12.9 | 19.3 | 0.00 | 0.00 | 0.00 | 64 | 1014.4 |
| 20260502214824 | 19 | 190 | 12.9 | 17.7 | 0.00 | 0.00 | 0.00 | 63 | 1016.6 |
| 20260502214537 | 19 | 207 | 9.7 | 17.7 | 0.00 | 0.00 | 0.00 | 61 | 1014.5 |
| 20260502213312 | 18 | 190 | 11.3 | 17.7 | 0.00 | 0.00 | 0.00 | 63 | 1016.7 |
| 20260502213059 | 18 | 238 | 8.0 | 17.7 | 0.00 | 0.00 | 0.00 | 65 | 1014.6 |
| 20260502211810 | 18 | 247 | 8.0 | 12.9 | 0.00 | 0.00 | 0.00 | 66 | 1016.7 |
| 20260502211519 | 18 | 183 | 4.8 | 9.7 | 0.00 | 0.00 | 0.00 | 65 | 1014.6 |